Location: Newark
(51.0500°N, 12.4500°E)
Time: 14:53:49
(UTC+00:00)

Tiros 1 - Pass Details

Date: 18 February 2020
Orbit: 630 x 664 km, 48.4° (Epoch: 31 March)

Event Time Altitude Azimuth Distance (km) Brightness Sun altitude
Rises 06:02:46 0° 268° (W) 2,917 - -3.2°
Exits shadow 06:03:23 - 267° (W) 2,673 9.7 -3.1°
Reaches altitude 10° 06:05:06 10° 265° (W) 2,008 9.1 -2.9°
Maximum altitude 06:09:39 62° 185° (S) 709 7.5 -2.2°
Drops below altitude 10° 06:14:13 10° 105° (ESE) 2,013 11.9 -1.5°
Sets 06:16:34 0° 102° (ESE) 2,924 13.6 -1.1°
